Jacksonville NAS, FL

6:22 PM EDT on August 17, 2017 (GMT -0400)
Jacksonville Naval Air Station

Weather History for KNIP - March, 2014

Change the Weather History Date:

Sunday, March 23, 2014

  Actual Average Record
Temperature  
Mean Temperature 70 °F -  
Max Temperature 82 °F 73 °F 88 °F (2012)
Min Temperature 60 °F 55 °F 46 °F (2002)
Cooling Degree Days 6    
Growing Degree Days 20 (Base 50)    
Moisture  
Dew Point 56 °F    
Average Humidity 61    
Maximum Humidity 86    
Minimum Humidity 39    
Precipitation  
Precipitation 0.00 in - - ()
Sea Level Pressure  
Sea Level Pressure 29.98 in    
Wind  
Wind Speed 9 mph (West)    
Max Wind Speed 15 mph    
Max Gust Speed 23 mph    
Visibility 10 miles    
Events      
Averages and records for this station are not official NWS values.
T = Trace of Precipitation, MM = Missing Value Source: NWS Daily Summary

Daily Weather History Graph

Daily Weather History Graph

Search for Another Location

Airport or City:

Trip Planner

Search our weather history database for the weather conditions in past years. The results will help you decide how hot, cold, wet, or windy it might be!

Date:

Astronomy

Mar. 23, 2014 Rise Set
Actual Time 7:26 AM EDT 7:40 PM EDT
Civil Twilight 7:02 AM EDT 8:04 PM EDT
Nautical Twilight 6:35 AM EDT 8:32 PM EDT
Astronomical Twilight 6:06 AM EDT 9:00 PM EDT
Moon 1:35 AM EDT (3/23) 12:26 PM EDT (3/23)
Length of Visible Light 13h 01m
Length of Day
12h 13m
Waning Gibbous, 55% of the Moon is Illuminated
Mar 23
Waning Gibbous
Mar 23
Last Quarter
Mar 30
New
Apr 7
First Quarter
Apr 15
Full

Hourly Weather History & Observations

Time (EDT) Temp. Heat Index Dew Point Humidity Pressure Visibility Wind Dir Wind Speed Gust Speed Precip Events Conditions
12:53 AM 66.9 °F - 55.0 °F 66% 30.01 in 10.0 mi West 10.4 mph - N/A   Clear
1:53 AM 64.9 °F - 55.9 °F 73% 30.01 in 10.0 mi West 11.5 mph - N/A   Clear
2:53 AM 64.0 °F - 55.9 °F 75% 30.00 in 10.0 mi WSW 11.5 mph - N/A   Partly Cloudy
3:53 AM 62.1 °F - 55.9 °F 80% 29.99 in 10.0 mi West 9.2 mph - N/A   Clear
4:53 AM 62.1 °F - 55.9 °F 80% 29.98 in 10.0 mi West 11.5 mph - N/A   Clear
5:53 AM 61.0 °F - 55.9 °F 83% 29.99 in 9.0 mi Variable 3.5 mph - N/A   Clear
6:53 AM 60.1 °F - 55.9 °F 86% 29.99 in 9.0 mi SW 3.5 mph - N/A   Clear
7:53 AM 60.1 °F - 55.9 °F 86% 30.00 in 8.0 mi Calm Calm - N/A   Partly Cloudy
8:53 AM 62.1 °F - 57.0 °F 84% 30.02 in 9.0 mi WSW 4.6 mph - N/A   Partly Cloudy
9:53 AM 68.0 °F - 55.9 °F 65% 30.01 in 10.0 mi West 6.9 mph - N/A   Mostly Cloudy
10:53 AM 72.0 °F - 55.0 °F 55% 30.02 in 10.0 mi West 9.2 mph - N/A   Mostly Cloudy
11:53 AM 73.9 °F - 54.0 °F 50% 30.01 in 10.0 mi WSW 8.1 mph - N/A   Scattered Clouds
12:53 PM 78.1 °F - 54.0 °F 43% 29.99 in 10.0 mi WSW 10.4 mph - N/A   Mostly Cloudy
1:53 PM 80.1 °F 80.7 °F 59.0 °F 48% 29.98 in 10.0 mi West 8.1 mph - N/A   Mostly Cloudy
2:53 PM 81.0 °F 81.1 °F 57.9 °F 45% 29.96 in 10.0 mi West 13.8 mph 23.0 mph N/A   Mostly Cloudy
3:53 PM 81.0 °F 81.1 °F 57.9 °F 45% 29.93 in 10.0 mi West 12.7 mph 20.7 mph N/A   Mostly Cloudy
4:45 PM 80.1 °F 80.7 °F 59.0 °F 48% 29.92 in 10.0 mi WNW 11.5 mph - 0.00 in   Mostly Cloudy
4:53 PM 79.0 °F - 57.9 °F 48% 29.91 in 10.0 mi NW 9.2 mph - 0.00 in   Mostly Cloudy
5:53 PM 80.1 °F 80.1 °F 55.0 °F 42% 29.91 in 10.0 mi West 13.8 mph - N/A   Scattered Clouds
6:53 PM 80.1 °F 79.9 °F 53.1 °F 39% 29.92 in 10.0 mi West 15.0 mph 20.7 mph N/A   Partly Cloudy
7:53 PM 77.0 °F - 54.0 °F 45% 29.93 in 10.0 mi West 5.8 mph - N/A   Partly Cloudy
8:53 PM 73.9 °F - 54.0 °F 50% 29.96 in 10.0 mi West 5.8 mph - N/A   Partly Cloudy
9:53 PM 73.0 °F - 55.0 °F 53% 29.99 in 10.0 mi West 3.5 mph - N/A   Partly Cloudy
10:53 PM 71.1 °F - 55.9 °F 59% 30.01 in 10.0 mi West 6.9 mph - N/A   Partly Cloudy
11:53 PM 69.1 °F - 57.0 °F 65% 30.01 in 10.0 mi West 6.9 mph - N/A   Scattered Clouds